{"data":{"norad_id":58985,"intl_designator":"2024-031W","name":"STARLINK-31385","alt_names":[],"object_type":"PAYLOAD","status":"ACTIVE","operator":null,"country":"US","launch_date":"2024-02-15","launch_site_code":"AFWTR","launch_vehicle":null,"mission":null,"orbit_class":"UNKNOWN","rcs_meters":null,"size_class":null,"mass_kg":null,"dimensions":null,"purposes":["comms"],"wikipedia_slug":null,"has_3d_model":false,"image_url":null,"decayed_at":null,"tle_current":{"epoch":"2026-09-19T20:55:22.757088Z","epoch_age_seconds":209729,"freshness":"STALE","line1":"1 58985U 24031W   26262.87179117 -.00000269  00000+0  31581-5 0  9994","line2":"2 58985  53.1592 108.2926 0001084  93.2728 266.8398 15.34391157146332","mean_motion":15.34391157,"eccentricity":0.0001084,"inclination_deg":53.1592,"raan_deg":108.2926,"arg_perigee_deg":93.2728,"mean_anomaly_deg":266.8398,"bstar":3.1581e-6,"rev_number":14633,"period_min":93.848298944544,"perigee_km":461.98797366176,"apogee_km":463.47107352407,"semimajor_km":6840.8665235929,"source":"CELESTRAK","updated_at":"2026-09-21T09:00:34.022577Z"}}}